Tracking 19219 objects as of 22-Jul-2018
HD Live streaming from Space Station
objects crossing your sky now

FENGYUN 1C DEB

Track FENGYUN 1C DEB now!
10-day predictions


NORAD ID: 30015
Int'l Code: 1999-025MQ
Perigee: 792.5 km
Apogee: 854.1 km
Inclination: 99.2 °
Period: 101.2 minutes
Semi major axis: 7194 km
RCS: 0.039 m2 (small)
Launch date: May 10, 1999
Source: People's Republic of China (PRC)
Launch site: Taiyaun Space Center, China (TSC)

Note: This is SATELLITE DEBRIS
aabbcc
Your satellite tracking list
Your tracking list is empty




NASA's NSSDC Master Catalog

Two Line Element Set (TLE):
1 30015U 99025MQ  18202.80456226  .00000195  00000-0  10790-3 0  9995
2 30015  99.2289  49.8754 0042782 301.9770 118.4857 14.22720120597216
Source of the keplerian elements: AFSPC